Time,TemperatureF,DewpointF,PressureIn,WindDirection,WindDirectionDegrees,WindSpeedMPH,WindSpeedGustMPH,Humidity,HourlyPrecipIn,Conditions,Clouds,dailyrainin,SoftwareType,DateUTC
2014-01-02 00:12:00,30.0,30.0,-100.00,South,189,3.0,6.0,100,-99.99,,,-99.99,,2014-01-02 08:12:00,
2014-01-02 01:11:00,30.0,30.0,-100.00,SSE,164,3.0,3.0,100,-99.99,,,-99.99,,2014-01-02 09:11:00,
2014-01-02 02:13:00,30.0,30.0,-100.00,SSE,160,3.0,3.0,100,-99.99,,,-99.99,,2014-01-02 10:13:00,
2014-01-02 03:12:00,29.0,29.0,-100.00,SSE,165,3.0,5.0,104,-99.99,,,-99.99,,2014-01-02 11:12:00,
2014-01-02 04:12:00,29.0,29.0,-100.00,SE,139,3.0,5.0,104,-99.99,,,-99.99,,2014-01-02 12:12:00,
2014-01-02 05:11:00,29.0,29.0,-100.00,East,88,3.0,3.0,104,-99.99,,,-99.99,,2014-01-02 13:11:00,
2014-01-02 06:12:00,30.0,30.0,-100.00,ENE,68,3.0,3.0,100,-99.99,,,-99.99,,2014-01-02 14:12:00,
2014-01-02 07:12:00,28.0,28.0,-100.00,North,352,2.0,3.0,104,-99.99,,,-99.99,,2014-01-02 15:12:00,
2014-01-02 08:12:00,29.0,29.0,-100.00,North,357,2.0,3.0,100,-99.99,,,-99.99,,2014-01-02 16:12:00,
2014-01-02 09:12:00,30.0,30.0,-100.00,SSE,162,6.0,8.0,100,-99.99,,,-99.99,,2014-01-02 17:12:00,
2014-01-02 10:12:00,30.0,30.0,-100.00,SE,124,2.0,3.0,100,-99.99,,,-99.99,,2014-01-02 18:12:00,
2014-01-02 11:11:00,31.0,31.0,-100.00,SE,131,5.0,8.0,100,-99.99,,,-99.99,,2014-01-02 19:11:00,
2014-01-02 12:11:00,31.0,31.0,-100.00,East,81,6.0,8.0,100,-99.99,,,-99.99,,2014-01-02 20:11:00,
2014-01-02 13:12:00,32.0,32.0,-100.00,ESE,105,3.0,8.0,100,-99.99,,,-99.99,,2014-01-02 21:12:00,
2014-01-02 14:13:00,32.0,32.0,-100.00,North,354,2.0,3.0,100,-99.99,,,-99.99,,2014-01-02 22:13:00,
2014-01-02 15:12:00,32.0,32.0,-100.00,West,263,3.0,6.0,100,-99.99,,,-99.99,,2014-01-02 23:12:00,
2014-01-02 17:11:00,32.0,32.0,-100.00,WNW,289,5.0,6.0,100,-99.99,,,-99.99,,2014-01-03 01:11:00,
2014-01-02 18:11:00,31.0,31.0,-100.00,WNW,291,2.0,3.0,104,-99.99,,,-99.99,,2014-01-03 02:11:00,
2014-01-02 19:12:00,31.0,31.0,-100.00,WNW,296,5.0,7.0,104,-99.99,,,-99.99,,2014-01-03 03:12:00,
2014-01-02 20:13:00,31.0,31.0,-100.00,West,272,3.0,6.0,100,-99.99,,,-99.99,,2014-01-03 04:13:00,
2014-01-02 21:12:00,30.0,30.0,-100.00,West,280,2.0,3.0,104,-99.99,,,-99.99,,2014-01-03 05:12:00,
2014-01-02 22:12:00,30.0,30.0,-100.00,NNW,341,2.0,3.0,104,-99.99,,,-99.99,,2014-01-03 06:12:00,
2014-01-02 23:12:00,30.0,30.0,-100.00,North,351,3.0,7.0,104,-99.99,,,-99.99,,2014-01-03 07:12:00,